Location: Lombard
(41.8800°N, 88.0078°W)
Time: 02:46:53
(UTC-06:00)

ARIANE 6 FM1 Upper Stage - Visible Passes

Search period start: 20 January 2026 00:00
Search period end: 30 January 2026 00:00
Orbit: 522 x 610 km, 62.0° (Epoch: 19 January)

Date Brightness Start Highest point End Pass type
(mag) Time Alt. Az. Time Alt. Az. Time Alt. Az.
20 Jan 4.3 17:57:59 10° SSE 18:00:31 16° ESE 18:01:03 16° ESE visible
20 Jan 4.7 19:35:11 10° SW 19:37:06 25° WSW 19:37:06 25° WSW visible
21 Jan 3.9 17:57:14 10° S 18:00:33 24° ESE 18:01:59 20° E visible
21 Jan 4.6 19:35:39 10° WSW 19:38:03 27° W 19:38:03 27° W visible
22 Jan 3.3 17:56:51 10° S 18:00:37 35° ESE 18:02:50 20° ENE visible
22 Jan 4.7 19:36:15 10° W 19:38:54 24° WNW 19:38:54 24° WNW visible
23 Jan 2.7 17:56:42 10° SSW 18:00:42 55° ESE 18:03:36 17° NE visible
23 Jan 5.0 19:37:01 10° W 19:39:39 19° NW 19:39:39 19° NW visible
24 Jan 2.5 17:56:43 10° SSW 18:00:49 84° SE 18:04:16 14° NE visible
24 Jan 5.2 19:38:01 10° WNW 19:40:18 15° NW 19:40:18 15° NW visible
25 Jan 2.9 17:56:54 10° SW 18:00:57 65° NW 18:04:50 11° NNE visible
25 Jan 5.4 19:39:23 10° NW 19:40:43 11° NNW 19:40:52 11° NNW visible
26 Jan 3.6 17:57:13 10° WSW 18:01:08 44° NW 18:04:59 10° NNE visible
27 Jan 4.2 17:57:42 10° WSW 18:01:20 31° NW 18:04:56 10° NNE visible
28 Jan 4.6 17:58:20 10° W 18:01:35 23° NW 18:04:49 10° NNE visible
29 Jan 5.0 17:59:08 10° W 18:01:52 17° NW 18:04:34 10° N visible
